This is the latest recevied weather packets stored in our database for station/object VR2HK-13. If no packets are shown the sender has not sent any weather packets the latest 1 day(s).
| Time | Temp. | Humidity | Pressure | Rain* | Wind** | Luminosity | Snow |
|---|---|---|---|---|---|---|---|
| 1778022303 | 21.67° C | 85% | 1013.5 hPa | 0 mm | 0 m/s | - | - |
| 1778022174 | 21.67° C | 85% | 1013.5 hPa | 0 mm | 1.34 m/s, 46° | - | - |
| 1778022003 | 21.67° C | 85% | 1013.5 hPa | 0 mm | 0.45 m/s, 257° | - | - |
| 1778021864 | 21.67° C | 85% | 1013.5 hPa | 0 mm | 0.45 m/s, 343° | - | - |
| 1778021702 | 21.67° C | 85% | 1013.5 hPa | 0 mm | 0 m/s | - | - |
| 1778021554 | 21.67° C | 85% | 1013.5 hPa | 0 mm | 1.79 m/s, 39° | - | - |
| 1778021403 | 21.67° C | 85% | 1013.4 hPa | 0 mm | 0 m/s | - | - |
| 1778021244 | 21.67° C | 85% | 1013.3 hPa | 0 mm | 0.89 m/s, 245° | - | - |
| 1778021103 | 21.67° C | 85% | 1013.3 hPa | 0 mm | 0.89 m/s, 291° | - | - |
| 1778020933 | 21.67° C | 85% | 1013.3 hPa | 0 mm | 0.89 m/s, 213° | - | - |
| 1778020802 | 21.67° C | 85% | 1013.3 hPa | 0 mm | 0.89 m/s, 10° | - | - |
| 1778020624 | 21.67° C | 85% | 1013.2 hPa | 0 mm | 1.34 m/s, 260° | - | - |
| 1778020502 | 21.67° C | 85% | 1013.3 hPa | 0 mm | 0 m/s | - | - |
| 1778020314 | 21.67° C | 85% | 1013.2 hPa | 0 mm | 1.79 m/s, 12° | - | - |
| 1778020203 | 21.67° C | 86% | 1013.2 hPa | 0 mm | 0.45 m/s, 69° | - | - |
| 1778020003 | 21.67° C | 86% | 1013.2 hPa | 0 mm | 0 m/s | - | - |
| 1778019902 | 21.67° C | 86% | 1013.1 hPa | 0 mm | 2.68 m/s, 191° | - | - |
| 1778019694 | 21.67° C | 86% | 1013.1 hPa | 0 mm | 0.45 m/s, 39° | - | - |
| 1778019602 | 21.67° C | 86% | 1013.1 hPa | 0 mm | 0.45 m/s, 269° | - | - |
| 1778019384 | 21.67° C | 86% | 1013 hPa | 0 mm | 0.45 m/s, 5° | - | - |
| 1778019303 | 21.67° C | 86% | 1013 hPa | 0 mm | 0.45 m/s, 261° | - | - |
| 1778019073 | 21.67° C | 86% | 1013 hPa | 0 mm | 0.89 m/s, 224° | - | - |
| 1778019002 | 21.67° C | 86% | 1013 hPa | 0 mm | 0.45 m/s, 340° | - | - |
| 1778018764 | 21.67° C | 86% | 1013 hPa | 0 mm | 0 m/s | - | - |
| 1778018702 | 21.67° C | 86% | 1013 hPa | 0 mm | 0.45 m/s, 338° | - | - |
* Rain latest hour (hover to see other rain measurements)
** Current wind speed in m/s (hover to see current wind gust speed)